TimeEDT,TemperatureF,Dew PointF,Humidity,Sea Level PressureIn,VisibilityMPH,Wind Direction,Wind SpeedMPH,Gust SpeedMPH,PrecipitationIn,Events,Conditions,WindDirDegrees,DateUTC
12:53 AM,75.9,71.1,85,29.96,10.0,South,3.5,-,N/A,,Clear,170,2013-05-23 04:53:00
1:53 AM,77.0,72.0,84,29.95,10.0,SSW,8.1,-,N/A,,Clear,200,2013-05-23 05:53:00
2:53 AM,75.9,71.1,85,29.94,10.0,South,4.6,-,N/A,,Clear,190,2013-05-23 06:53:00
3:53 AM,75.0,71.1,87,29.94,10.0,SSW,3.5,-,N/A,,Clear,200,2013-05-23 07:53:00
4:53 AM,73.9,70.0,87,29.96,10.0,SSW,3.5,-,N/A,,Clear,210,2013-05-23 08:53:00
5:53 AM,73.0,71.1,93,29.97,10.0,Calm,Calm,-,N/A,,Clear,0,2013-05-23 09:53:00
6:53 AM,73.0,71.1,93,29.99,10.0,Calm,Calm,-,N/A,,Clear,0,2013-05-23 10:53:00
7:53 AM,77.0,73.0,88,30.01,10.0,WSW,3.5,-,N/A,,Partly Cloudy,250,2013-05-23 11:53:00
8:53 AM,81.0,73.0,77,30.03,10.0,West,8.1,-,N/A,,Clear,280,2013-05-23 12:53:00
9:43 AM,82.4,73.4,74,30.02,10.0,WSW,9.2,-,N/A,,Mostly Cloudy,250,2013-05-23 13:43:00
9:53 AM,82.0,73.9,76,30.03,10.0,West,12.7,-,N/A,,Mostly Cloudy,270,2013-05-23 13:53:00
10:11 AM,82.4,73.4,74,30.02,10.0,WNW,8.1,-,N/A,,Mostly Cloudy,290,2013-05-23 14:11:00
10:53 AM,84.0,73.0,69,30.03,10.0,West,10.4,-,N/A,,Mostly Cloudy,280,2013-05-23 14:53:00
11:53 AM,86.0,71.1,61,30.03,10.0,West,9.2,-,N/A,,Scattered Clouds,260,2013-05-23 15:53:00
12:53 PM,88.0,69.1,53,30.02,10.0,NW,8.1,-,N/A,,Partly Cloudy,310,2013-05-23 16:53:00
1:53 PM,90.0,66.9,46,30.01,10.0,West,11.5,16.1,N/A,,Clear,280,2013-05-23 17:53:00
2:53 PM,89.1,64.0,43,30.00,10.0,WNW,10.4,16.1,N/A,,Scattered Clouds,290,2013-05-23 18:53:00
3:53 PM,91.9,63.0,38,29.97,10.0,West,8.1,-,N/A,,Clear,270,2013-05-23 19:53:00
4:53 PM,90.0,64.0,42,29.96,10.0,North,8.1,-,N/A,,Clear,360,2013-05-23 20:53:00
5:53 PM,86.0,70.0,59,29.97,10.0,East,11.5,-,N/A,,Partly Cloudy,90,2013-05-23 21:53:00
6:53 PM,84.9,71.1,63,29.97,10.0,SE,10.4,-,N/A,,Clear,130,2013-05-23 22:53:00
7:53 PM,82.9,69.1,63,29.98,10.0,SE,8.1,-,N/A,,Clear,130,2013-05-23 23:53:00
8:53 PM,82.0,72.0,71,30.00,10.0,ESE,5.8,-,N/A,,Clear,120,2013-05-24 00:53:00
9:53 PM,81.0,73.9,79,30.01,10.0,ESE,3.5,-,N/A,,Clear,120,2013-05-24 01:53:00
10:53 PM,80.1,75.0,85,30.02,10.0,East,4.6,-,N/A,,Clear,100,2013-05-24 02:53:00
11:53 PM,81.0,75.0,82,30.02,10.0,Calm,Calm,-,N/A,,Clear,0,2013-05-24 03:53:00